{"data":{"norad_id":58758,"intl_designator":"2024-009A","name":"YUNYAO-1 18","alt_names":[],"object_type":"PAYLOAD","status":"ACTIVE","operator":null,"country":"PRC","launch_date":"2024-01-11","launch_site_code":"YSLA","launch_vehicle":null,"mission":null,"orbit_class":"UNKNOWN","rcs_meters":null,"size_class":null,"mass_kg":null,"dimensions":null,"purposes":[],"wikipedia_slug":null,"has_3d_model":false,"image_url":null,"decayed_at":null,"tle_current":{"epoch":"2026-09-22T21:40:53.117184Z","epoch_age_seconds":42813,"freshness":"FRESH","line1":"1 58758U 24009A   26265.90339256  .00010883  00000+0  43680-3 0  9999","line2":"2 58758  50.0146  32.0148 0005867 292.6476  67.3859 15.25409555149756","mean_motion":15.25409555,"eccentricity":0.0005867,"inclination_deg":50.0146,"raan_deg":32.0148,"arg_perigee_deg":292.6476,"mean_anomaly_deg":67.3859,"bstar":0.0004368,"rev_number":14975,"period_min":94.400877146728,"perigee_km":485.52661863025,"apogee_km":493.58516947213,"semimajor_km":6867.6928940512,"source":"CELESTRAK","updated_at":"2026-09-23T09:00:18.961248Z"}}}